DAL191 KBOS-KTYS

Flight info

Callsign DAL191
Flight time N/A
Altitude 30000
Route BLZZR6 BLZZR BAF Q448 PTW J48 CSN FANPO Q40 ALEAN VXV
Aircraft A21N/M-SDE3FGHIRWY/LB1

Departure

Time 2026-05-06 10:59
Airport Boston Logan International Airport (KBOS)

Arrival

Time N/A
Airport McGhee Tyson Airport (KTYS)
Time Latitude Longitude Altitude Speed Heading
2026-05-06 10:40 42.36386 -71.02434 15 ft 0 kts 272°
2026-05-06 10:40 42.36386 -71.02432 15 ft 0 kts 273°
2026-05-06 10:40 42.36382 -71.02418 15 ft 2 kts 302°
2026-05-06 10:41 42.36379 -71.02407 15 ft 0 kts 273°
2026-05-06 10:41 42.36381 -71.02389 15 ft 2 kts 245°
2026-05-06 10:41 42.36390 -71.02373 15 ft 2 kts 216°
2026-05-06 10:41 42.36404 -71.02364 15 ft 2 kts 187°
2026-05-06 10:42 42.36418 -71.02365 15 ft 1 kts 159°
2026-05-06 10:42 42.36424 -71.02369 15 ft 1 kts 149°
2026-05-06 10:42 42.36427 -71.02371 15 ft 0 kts 152°
2026-05-06 10:49 42.36420 -71.02367 15 ft 3 kts 152°
2026-05-06 10:49 42.36389 -71.02344 15 ft 5 kts 152°
2026-05-06 10:49 42.36352 -71.02314 15 ft 7 kts 140°
2026-05-06 10:49 42.36319 -71.02261 15 ft 7 kts 132°
2026-05-06 10:50 42.36268 -71.02238 15 ft 8 kts 191°
2026-05-06 10:50 42.36207 -71.02268 15 ft 9 kts 199°
2026-05-06 10:50 42.36136 -71.02270 15 ft 11 kts 157°
2026-05-06 10:50 42.36080 -71.02186 15 ft 12 kts 121°
2026-05-06 10:51 42.36032 -71.02078 17 ft 13 kts 121°
2026-05-06 10:51 42.35984 -71.01969 19 ft 14 kts 121°
2026-05-06 10:51 42.35932 -71.01847 18 ft 15 kts 115°
2026-05-06 10:51 42.35901 -71.01699 19 ft 16 kts 100°
2026-05-06 10:52 42.35903 -71.01559 20 ft 14 kts 52°
2026-05-06 10:52 42.36000 -71.01494 19 ft 17 kts 19°
2026-05-06 10:52 42.36122 -71.01436 19 ft 19 kts 19°
2026-05-06 10:52 42.36252 -71.01373 19 ft 20 kts 19°
2026-05-06 10:53 42.36253 -71.01372 19 ft 20 kts 19°
2026-05-06 10:53 42.36331 -71.01335 19 ft 20 kts 20°
2026-05-06 10:53 42.36467 -71.01269 19 ft 20 kts 19°
2026-05-06 10:53 42.36606 -71.01202 16 ft 21 kts 19°
2026-05-06 10:54 42.36727 -71.01147 15 ft 17 kts 15°
2026-05-06 10:54 42.36833 -71.01204 15 ft 16 kts 327°
2026-05-06 10:54 42.36935 -71.01160 15 ft 17 kts 36°
2026-05-06 10:54 42.37026 -71.01084 15 ft 0 kts 26°
2026-05-06 10:55 42.37067 -71.01057 14 ft 11 kts 26°
2026-05-06 10:56 42.37156 -71.00998 12 ft 16 kts 27°
2026-05-06 10:56 42.37260 -71.00928 12 ft 16 kts 22°
2026-05-06 10:56 42.37371 -71.00871 12 ft 17 kts 18°
2026-05-06 10:56 42.37493 -71.00813 12 ft 20 kts 20°
2026-05-06 10:57 42.37635 -71.00743 12 ft 21 kts 20°
2026-05-06 10:57 42.37771 -71.00678 12 ft 17 kts 19°
2026-05-06 10:57 42.37836 -71.00597 12 ft 13 kts 88°
2026-05-06 10:57 42.37806 -71.00482 12 ft 12 kts 147°
2026-05-06 10:58 42.37745 -71.00488 12 ft 10 kts 199°
2026-05-06 10:58 42.37429 -71.00645 12 ft 86 kts 200°
2026-05-06 10:58 42.36653 -71.01022 19 ft 146 kts 199°
2026-05-06 10:58 42.35664 -71.01495 421 ft 157 kts 200°
2026-05-06 10:59 42.34627 -71.01814 1180 ft 155 kts 179°
2026-05-06 10:59 42.33702 -71.01070 1947 ft 169 kts 142°
2026-05-06 10:59 42.32998 -70.99697 2418 ft 182 kts 136°
2026-05-06 10:59 42.32189 -70.98325 2712 ft 192 kts 142°
2026-05-06 11:00 42.31347 -70.96873 3036 ft 209 kts 131°
2026-05-06 11:00 42.31037 -70.94803 3296 ft 245 kts 90°
2026-05-06 11:00 42.31424 -70.92461 3570 ft 266 kts 81°
2026-05-06 11:00 42.31882 -70.89945 3871 ft 283 kts 81°
2026-05-06 11:01 42.32314 -70.87308 4260 ft 297 kts 82°
2026-05-06 11:01 42.32729 -70.84543 4851 ft 303 kts 83°
2026-05-06 11:01 42.33106 -70.81770 5602 ft 301 kts 88°
2026-05-06 11:01 42.32947 -70.79043 6279 ft 290 kts 115°
2026-05-06 11:02 42.32091 -70.76622 6986 ft 283 kts 127°
2026-05-06 11:02 42.31113 -70.74346 7627 ft 285 kts 129°
2026-05-06 11:02 42.29853 -70.72392 8224 ft 271 kts 154°
2026-05-06 11:02 42.28169 -70.71516 8857 ft 256 kts 179°
2026-05-06 11:03 42.26430 -70.71667 9509 ft 248 kts 195°
2026-05-06 11:03 42.24746 -70.72099 10139 ft 250 kts 194°
2026-05-06 11:03 42.23021 -70.72511 10541 ft 259 kts 194°
2026-05-06 11:03 42.21226 -70.73051 10955 ft 264 kts 205°
2026-05-06 11:04 42.19693 -70.74372 11495 ft 264 kts 224°
2026-05-06 11:04 42.18602 -70.76373 11923 ft 273 kts 242°
2026-05-06 11:04 42.18067 -70.78873 12159 ft 291 kts 255°
2026-05-06 11:04 42.17688 -70.81612 12401 ft 304 kts 255°
2026-05-06 11:05 42.17285 -70.84466 12635 ft 316 kts 255°
2026-05-06 11:05 42.16872 -70.87434 12867 ft 328 kts 255°
2026-05-06 11:05 42.16463 -70.90484 13239 ft 336 kts 257°
2026-05-06 11:05 42.16221 -70.93656 13745 ft 341 kts 263°
2026-05-06 11:06 42.16213 -70.96868 14262 ft 345 kts 268°
2026-05-06 11:06 42.16400 -71.00067 14751 ft 348 kts 270°
2026-05-06 11:06 42.16636 -71.03343 15206 ft 352 kts 271°
2026-05-06 11:06 42.16877 -71.06600 15669 ft 354 kts 271°
2026-05-06 11:07 42.17120 -71.09904 16137 ft 356 kts 271°
2026-05-06 11:07 42.17360 -71.13195 16588 ft 357 kts 271°
2026-05-06 11:07 42.17602 -71.16539 16996 ft 360 kts 272°
2026-05-06 11:07 42.17846 -71.19934 17449 ft 361 kts 272°
2026-05-06 11:08 42.18087 -71.23279 17881 ft 363 kts 272°
2026-05-06 11:08 42.18329 -71.26679 18296 ft 364 kts 272°
2026-05-06 11:08 42.18570 -71.30054 18669 ft 367 kts 272°
2026-05-06 11:08 42.18814 -71.33488 19042 ft 369 kts 272°
2026-05-06 11:09 42.19055 -71.36912 19401 ft 371 kts 272°
2026-05-06 11:09 42.19300 -71.40393 19768 ft 373 kts 273°
2026-05-06 11:09 42.19541 -71.43848 20150 ft 374 kts 273°
2026-05-06 11:09 42.19784 -71.47341 20489 ft 376 kts 273°
2026-05-06 11:10 42.20026 -71.50840 20804 ft 378 kts 273°
2026-05-06 11:10 42.20266 -71.54344 21123 ft 380 kts 273°
2026-05-06 11:10 42.20513 -71.57909 21458 ft 382 kts 273°
2026-05-06 11:10 42.20754 -71.61458 21776 ft 383 kts 273°
2026-05-06 11:11 42.20998 -71.65049 22109 ft 384 kts 272°
2026-05-06 11:11 42.21235 -71.68593 22386 ft 387 kts 272°
2026-05-06 11:11 42.21461 -71.72244 22663 ft 388 kts 271°
2026-05-06 11:11 42.21557 -71.75868 22961 ft 389 kts 268°
2026-05-06 11:12 42.21510 -71.79511 23280 ft 389 kts 265°
2026-05-06 11:12 42.21339 -71.83128 23560 ft 391 kts 264°
2026-05-06 11:12 42.21144 -71.86781 23852 ft 392 kts 264°
2026-05-06 11:12 42.20943 -71.90459 24132 ft 394 kts 264°
2026-05-06 11:13 42.20739 -71.94136 24422 ft 395 kts 264°
2026-05-06 11:13 42.20534 -71.97824 24692 ft 397 kts 264°
2026-05-06 11:13 42.20329 -72.01535 24951 ft 398 kts 264°
2026-05-06 11:13 42.20118 -72.05286 25207 ft 400 kts 264°
2026-05-06 11:14 42.19906 -72.09022 25478 ft 401 kts 264°
2026-05-06 11:14 42.19695 -72.12753 25732 ft 402 kts 264°
2026-05-06 11:14 42.19483 -72.16491 25973 ft 404 kts 264°
2026-05-06 11:14 42.19266 -72.20261 26237 ft 404 kts 265°
2026-05-06 11:15 42.19049 -72.24030 26485 ft 405 kts 264°
2026-05-06 11:15 42.18829 -72.27825 26693 ft 407 kts 264°
2026-05-06 11:15 42.18607 -72.31624 26921 ft 408 kts 265°
2026-05-06 11:15 42.18385 -72.35400 27117 ft 409 kts 264°
2026-05-06 11:16 42.18160 -72.39231 27346 ft 410 kts 264°
2026-05-06 11:16 42.17934 -72.43025 27690 ft 408 kts 265°
2026-05-06 11:16 42.17707 -72.46800 28032 ft 405 kts 265°
2026-05-06 11:16 42.17482 -72.50558 28323 ft 405 kts 265°
2026-05-06 11:17 42.17254 -72.54355 28534 ft 406 kts 265°
2026-05-06 11:17 42.17022 -72.58143 28751 ft 406 kts 265°
2026-05-06 11:17 42.16794 -72.61887 28980 ft 407 kts 265°
2026-05-06 11:17 42.16467 -72.65678 29200 ft 407 kts 259°
2026-05-06 11:18 42.15770 -72.69361 29464 ft 407 kts 252°
2026-05-06 11:18 42.14714 -72.72903 29698 ft 409 kts 246°
2026-05-06 11:18 42.13316 -72.76254 29861 ft 411 kts 239°
2026-05-06 11:19 42.09861 -72.82427 29867 ft 414 kts 235°
2026-05-06 11:19 42.06295 -72.88533 29872 ft 416 kts 235°
2026-05-06 11:20 42.02733 -72.94613 29871 ft 416 kts 235°
2026-05-06 11:20 41.99128 -73.00711 29867 ft 417 kts 233°
2026-05-06 11:21 41.95085 -73.06282 29864 ft 420 kts 226°
2026-05-06 11:21 41.90411 -73.11070 29874 ft 423 kts 218°
2026-05-06 11:22 41.85437 -73.15292 29876 ft 423 kts 217°
2026-05-06 11:22 41.80468 -73.19472 29877 ft 422 kts 217°
2026-05-06 11:23 41.75481 -73.23655 29876 ft 423 kts 217°
2026-05-06 11:23 41.70521 -73.27836 29876 ft 423 kts 219°
2026-05-06 11:24 41.65881 -73.32562 29880 ft 419 kts 225°
2026-05-06 11:24 41.61774 -73.37969 29878 ft 415 kts 232°
2026-05-06 11:25 41.57990 -73.43758 29881 ft 414 kts 232°
2026-05-06 11:25 41.54211 -73.49553 29880 ft 414 kts 233°
2026-05-06 11:26 41.50433 -73.55343 29882 ft 414 kts 233°
2026-05-06 11:26 41.46662 -73.61112 29881 ft 413 kts 233°
2026-05-06 11:27 41.42880 -73.66888 29877 ft 414 kts 232°
2026-05-06 11:27 41.39105 -73.72645 29881 ft 415 kts 232°
2026-05-06 11:28 41.35323 -73.78402 29876 ft 415 kts 232°
2026-05-06 11:28 41.31478 -73.84147 29880 ft 415 kts 231°
2026-05-06 11:29 41.27636 -73.89800 29874 ft 415 kts 231°
2026-05-06 11:29 41.23779 -73.95476 29874 ft 416 kts 232°
2026-05-06 11:30 41.19897 -74.01186 29874 ft 417 kts 231°
2026-05-06 11:30 41.16039 -74.06850 29878 ft 416 kts 232°
2026-05-06 11:31 41.12280 -74.12672 29879 ft 415 kts 234°
2026-05-06 11:31 41.08625 -74.18590 29878 ft 414 kts 234°
2026-05-06 11:32 41.04985 -74.24479 29882 ft 414 kts 234°
2026-05-06 11:32 41.01337 -74.30367 29880 ft 414 kts 234°
2026-05-06 11:33 40.97688 -74.36251 29888 ft 414 kts 234°
2026-05-06 11:33 40.94036 -74.42132 29890 ft 414 kts 234°
2026-05-06 11:34 40.90408 -74.47959 29889 ft 411 kts 234°
2026-05-06 11:34 40.86782 -74.53775 29879 ft 411 kts 234°
2026-05-06 11:35 40.83143 -74.59600 29876 ft 411 kts 234°
2026-05-06 11:35 40.79520 -74.65388 29877 ft 410 kts 234°
2026-05-06 11:36 40.75899 -74.71165 29872 ft 410 kts 234°
2026-05-06 11:36 40.72289 -74.76919 29875 ft 410 kts 234°
2026-05-06 11:37 40.68655 -74.82688 29875 ft 410 kts 234°
2026-05-06 11:37 40.65008 -74.88468 29876 ft 410 kts 234°
2026-05-06 11:38 40.61373 -74.94225 29879 ft 409 kts 234°
2026-05-06 11:38 40.57767 -74.99927 29877 ft 409 kts 234°
2026-05-06 11:39 40.54122 -75.05683 29874 ft 408 kts 235°
2026-05-06 11:39 40.50503 -75.11439 29877 ft 407 kts 235°
2026-05-06 11:40 40.46906 -75.17143 29881 ft 407 kts 234°
2026-05-06 11:40 40.43290 -75.22863 29884 ft 408 kts 235°
2026-05-06 11:41 40.39685 -75.28562 29885 ft 406 kts 235°
2026-05-06 11:41 40.36078 -75.34247 29888 ft 406 kts 235°
2026-05-06 11:42 40.32480 -75.39914 29884 ft 407 kts 235°
2026-05-06 11:42 40.28860 -75.45606 29882 ft 406 kts 235°
2026-05-06 11:43 40.25266 -75.51242 29891 ft 405 kts 235°
2026-05-06 11:43 40.21797 -75.57000 29888 ft 402 kts 239°
2026-05-06 11:44 40.17189 -75.66043 29884 ft 400 kts 240°
2026-05-06 11:44 40.14143 -75.72092 29886 ft 399 kts 240°
2026-05-06 11:45 40.11084 -75.78155 29883 ft 399 kts 241°
2026-05-06 11:45 40.08016 -75.84228 29876 ft 398 kts 241°
2026-05-06 11:46 40.04977 -75.90231 29879 ft 396 kts 241°
2026-05-06 11:46 40.01939 -75.96216 29884 ft 397 kts 241°
2026-05-06 11:47 39.98900 -76.02199 29887 ft 397 kts 241°
2026-05-06 11:47 39.95851 -76.08188 29875 ft 398 kts 241°
2026-05-06 11:48 39.92793 -76.14181 29870 ft 398 kts 241°
2026-05-06 11:48 39.89724 -76.20181 29879 ft 398 kts 241°
2026-05-06 11:49 39.86665 -76.26148 29870 ft 397 kts 241°
2026-05-06 11:49 39.83615 -76.32096 29868 ft 396 kts 241°
2026-05-06 11:50 39.80543 -76.38062 29871 ft 397 kts 241°
2026-05-06 11:50 39.77487 -76.44000 29865 ft 397 kts 241°
2026-05-06 11:51 39.74415 -76.49950 29867 ft 398 kts 241°
2026-05-06 11:51 39.71333 -76.55919 29874 ft 396 kts 241°
2026-05-06 11:52 39.68264 -76.61835 29862 ft 397 kts 241°
2026-05-06 11:52 39.65207 -76.67723 29869 ft 397 kts 240°
2026-05-06 11:53 39.62132 -76.73650 29872 ft 396 kts 241°
2026-05-06 11:53 39.59049 -76.79577 29856 ft 396 kts 241°
2026-05-06 11:54 39.55967 -76.85486 29868 ft 395 kts 242°
2026-05-06 11:54 39.52879 -76.91363 29868 ft 396 kts 240°
2026-05-06 11:55 39.49426 -76.96933 29864 ft 401 kts 234°
2026-05-06 11:55 39.45438 -77.02008 29866 ft 407 kts 229°
2026-05-06 11:56 39.41044 -77.06696 29869 ft 409 kts 227°
2026-05-06 11:56 39.36637 -77.11350 29864 ft 410 kts 227°
2026-05-06 11:57 39.32237 -77.15973 29869 ft 409 kts 227°
2026-05-06 11:57 39.27799 -77.20630 29878 ft 410 kts 227°
2026-05-06 11:58 39.23366 -77.25272 29885 ft 412 kts 227°
2026-05-06 11:58 39.18945 -77.29891 29888 ft 411 kts 227°
2026-05-06 11:59 39.14507 -77.34516 29891 ft 413 kts 228°
2026-05-06 11:59 39.10060 -77.39146 29889 ft 411 kts 228°
2026-05-06 12:00 39.05583 -77.43800 29883 ft 413 kts 228°
2026-05-06 12:00 39.01109 -77.48444 29883 ft 414 kts 228°
2026-05-06 12:01 38.96637 -77.53081 29893 ft 413 kts 229°
2026-05-06 12:01 38.92170 -77.57701 29884 ft 414 kts 228°
2026-05-06 12:02 38.87680 -77.62341 29879 ft 414 kts 228°
2026-05-06 12:02 38.83199 -77.66955 29885 ft 416 kts 227°
2026-05-06 12:03 38.78706 -77.71575 29883 ft 414 kts 228°
2026-05-06 12:03 38.74211 -77.76199 29894 ft 415 kts 228°
2026-05-06 12:04 38.69704 -77.80824 29899 ft 415 kts 228°
2026-05-06 12:04 38.65406 -77.85665 29902 ft 412 kts 232°
2026-05-06 12:05 38.61556 -77.90998 29904 ft 404 kts 238°
2026-05-06 12:05 38.58141 -77.96624 29907 ft 402 kts 240°
2026-05-06 12:06 38.54750 -78.02312 29905 ft 403 kts 240°
2026-05-06 12:06 38.51370 -78.07994 29903 ft 402 kts 240°
2026-05-06 12:07 38.47996 -78.13652 29898 ft 405 kts 240°
2026-05-06 12:07 38.44580 -78.19370 29891 ft 404 kts 240°
2026-05-06 12:08 38.41364 -78.25174 29893 ft 398 kts 244°
2026-05-06 12:08 38.38465 -78.31105 29894 ft 398 kts 245°
2026-05-06 12:09 38.35547 -78.37077 29904 ft 398 kts 245°
2026-05-06 12:09 38.32619 -78.43066 29904 ft 397 kts 245°
2026-05-06 12:10 38.29705 -78.49012 29905 ft 396 kts 245°
2026-05-06 12:10 38.26787 -78.54964 29907 ft 399 kts 245°
2026-05-06 12:11 38.23854 -78.60941 29907 ft 398 kts 244°
2026-05-06 12:11 38.20945 -78.66858 29913 ft 397 kts 245°
2026-05-06 12:12 38.18011 -78.72804 29910 ft 397 kts 245°
2026-05-06 12:12 38.15075 -78.78760 29912 ft 396 kts 244°
2026-05-06 12:13 38.12161 -78.84640 29911 ft 398 kts 244°
2026-05-06 12:13 38.09217 -78.90589 29907 ft 398 kts 244°
2026-05-06 12:14 38.06260 -78.96536 29900 ft 399 kts 244°
2026-05-06 12:14 38.03299 -79.02491 29889 ft 398 kts 245°
2026-05-06 12:15 38.00344 -79.08428 29882 ft 399 kts 244°
2026-05-06 12:15 37.97387 -79.14357 29888 ft 397 kts 244°
2026-05-06 12:16 37.94445 -79.20236 29891 ft 396 kts 244°
2026-05-06 12:16 37.91508 -79.26111 29898 ft 395 kts 243°
2026-05-06 12:17 37.88551 -79.31987 29896 ft 395 kts 244°
2026-05-06 12:17 37.85614 -79.37823 29906 ft 395 kts 243°
2026-05-06 12:18 37.82635 -79.43702 29900 ft 395 kts 243°
2026-05-06 12:18 37.79675 -79.49535 29910 ft 394 kts 243°
2026-05-06 12:19 37.76745 -79.55308 29905 ft 392 kts 243°
2026-05-06 12:19 37.73800 -79.61100 29913 ft 394 kts 243°
2026-05-06 12:20 37.70839 -79.66914 29919 ft 393 kts 242°
2026-05-06 12:20 37.67878 -79.72715 29915 ft 393 kts 242°
2026-05-06 12:21 37.64927 -79.78500 29918 ft 394 kts 242°
2026-05-06 12:21 37.61952 -79.84298 29924 ft 393 kts 242°
2026-05-06 12:22 37.59000 -79.90059 29925 ft 393 kts 241°
2026-05-06 12:22 37.56025 -79.95848 29930 ft 392 kts 241°
2026-05-06 12:23 37.53066 -80.01591 29933 ft 393 kts 242°
2026-05-06 12:23 37.50100 -80.07343 29939 ft 393 kts 241°
2026-05-06 12:24 37.47114 -80.13125 29935 ft 393 kts 241°
2026-05-06 12:24 37.44132 -80.18893 29933 ft 393 kts 242°